Flag for South Africa Weather past 2 weeks in Stellenbosch, South Africa

Now
84 °F

Passing clouds.


Feels Like: 82 °F
Forecast: 45 / 73 °F
Wind: 8 mph from Northwest

Location: Cape Town International Airport

Current Time: Sep 2, 2014 at 2:58:47 PM

Latest Report: Sep 2, 2014 at 2:00 PM


Visibility: N/A

Pressure: 30.01 "Hg

Humidity: 33%

Dew point: 52 °F

Location of StellenboschLocation

Historic Weather in Stellenbosch — Graph

°F

Stellenbosch temperature yesterday

Maximum temperature yesterday: 86 °F (at 1:00 PM)
Minimum temperature yesterday: 48 °F (at 3:00 AM)
Average temperature yesterday: 64 °F

Past Weeks' High & Low Weather Summary

 TemperatureHumidityPressure
High86 °F (Sep 1, 1:00 PM)94% (Aug 21, 10:00 PM)30.48 "Hg (Aug 21, 10:00 PM)
Low39 °F (Aug 24, 7:00 AM)17% (Sep 1, 4:00 PM)29.83 "Hg (Aug 27, 6:00 AM)
Average57 °F69%30.10 "Hg
* Reported Aug 18 2:00 PM — Sep 2 2:00 PM, Stellenbosch, Weather by CustomWeather, © 2014

Note: Actual official high and low records may vary slightly from our data, if they occured in-between our weather recording intervals... More about our weather records

Advertising

Stellenbosch weather history for previous 24 hours

 ConditionsComfort  
Time TempWeatherWind HumidityBarometerVisibility
2:00 PM
Sep 2
84 °FPassing clouds.8 mph33%30.01 "HgN/A
1:00 PM84 °FSunny.9 mph27%30.04 "Hg10 mi
12:00 PM84 °FSunny.7 mph23%30.04 "Hg10 mi
11:00 AM77 °FSunny.6 mph32%30.07 "Hg10 mi
10:00 AM73 °FSunny.7 mph31%30.07 "Hg10 mi
9:00 AM72 °FSunny.8 mph31%30.04 "Hg10 mi
8:00 AM61 °FSunny.3 mph42%30.04 "Hg10 mi
7:00 AM57 °FPassing clouds.3 mph48%30.04 "HgN/A
6:00 AM68 °FPassing clouds.3 mph26%30.04 "HgN/A
5:00 AM52 °FClear.2 mph62%30.01 "Hg10 mi
4:00 AM50 °FClear.2 mph71%30.01 "Hg10 mi
3:00 AM59 °FClear.2 mph48%30.04 "Hg10 mi
2:00 AM55 °FClear.5 mph63%30.04 "Hg10 mi
1:00 AM54 °FClear.7 mph72%30.07 "Hg10 mi
12:00 AM54 °FClear.5 mph72%30.07 "Hg10 mi
11:00 PM
Sep 1
55 °FClear.3 mph77%30.07 "Hg10 mi
10:00 PM57 °FClear.2 mph72%30.09 "Hg10 mi
9:00 PM59 °FClear.3 mph72%30.09 "Hg10 mi
8:00 PM64 °FClear.5 mph64%30.09 "Hg10 mi
7:00 PM68 °FPassing clouds.3 mph43%30.09 "HgN/A
6:00 PM73 °FClear.8 mph38%30.07 "Hg10 mi
5:00 PM81 °FSunny.6 mph28%30.07 "Hg10 mi
4:00 PM86 °FSunny.5 mph17%30.07 "Hg10 mi
3:00 PM86 °FSunny.5 mph19%30.07 "Hg10 mi
2:00 PM86 °FPassing clouds.6 mph19%30.09 "HgN/A
Weather by CustomWeather, © 2014

See weather overviewHow to use our weather pages